Home > Weather > Kemerovo > Past weeks

Flag for Russia Weather for the Past 2 Weeks in Kemerovo, Russia

Now
55 °F

Clear.


Feels Like: 54 °F
Forecast: 37 / 66 °F
Wind: 6 mph from Northwest

Location: Kemerovo

Current Time: May 5, 2016 at 11:19:46 PM

Latest Report: May 5, 2016 at 10:30 PM


Visibility: 10 mi

Pressure: 29.83 "Hg

Humidity: 23%

Dew Point: 18 °F

Location of KemerovoLocation

Historic Weather in Kemerovo — Graph

°F

Kemerovo Temperature Yesterday

Maximum temperature yesterday: 54 °F (at 5:00 PM)
Minimum temperature yesterday: 28 °F (at 3:00 AM)
Average temperature yesterday: 42 °F

High & Low Weather Summary for the Past Weeks

 TemperatureHumidityPressure
High73 °F (Apr 21, 3:30 PM)100% (Apr 23, 5:00 AM)30.27 "Hg (Apr 23, 5:00 AM)
Low25 °F (May 3, 3:30 AM)19% (May 5, 5:30 PM)29.80 "Hg (Apr 21, 11:00 PM)
Average48 °F59%29.97 "Hg
* Reported Apr 20 10:00 PM — May 5 10:00 PM, Kemerovo, Weather by CustomWeather, © 2016

Note: Actual official high and low records may vary slightly from our data, if they occured in-between our weather recording intervals... More about our weather records

Advertising

Kemerovo Weather History for the Previous 24 Hours

Scroll right to see more
 ConditionsComfort  
Time TempWeatherWind HumidityBarometerVisibility
10:00 PM
Thu, May 5
55 °FClear.6 mph24%29.83 "Hg10 mi
9:30 PM57 °FSunny.3 mph23%29.86 "Hg10 mi
9:00 PM57 °FSunny.3 mph23%29.86 "Hg10 mi
8:30 PM59 °FSunny.1 mph21%29.86 "Hg10 mi
8:00 PM59 °FSunny.1 mph23%29.86 "Hg10 mi
7:30 PM61 °FSunny.1 mph20%29.86 "Hg10 mi
7:00 PM61 °FPassing clouds.3 mph20%29.86 "HgN/A
6:30 PM61 °FSunny.1 mph20%29.89 "Hg10 mi
6:00 PM61 °FPassing clouds.3 mph20%29.89 "HgN/A
5:30 PM63 °FSunny.6 mph19%29.89 "Hg10 mi
5:00 PM61 °FPassing clouds.3 mph20%29.92 "HgN/A
4:30 PM61 °FPassing clouds.6 mph20%29.92 "HgN/A
4:00 PM61 °FSunny.3 mph22%29.92 "Hg10 mi
3:30 PM61 °FSunny.1 mph22%29.95 "Hg10 mi
3:00 PM61 °FPassing clouds.3 mph20%29.95 "HgN/A
2:30 PM59 °FPassing clouds.3 mph23%29.98 "HgN/A
2:00 PM59 °FPassing clouds.3 mph25%29.98 "HgN/A
1:30 PM57 °FSunny.6 mph25%30.01 "Hg10 mi
1:00 PM57 °FSunny.6 mph27%30.01 "Hg10 mi
12:30 PM57 °FPassing clouds.3 mph29%30.01 "HgN/A
12:00 PM55 °FPassing clouds.6 mph28%30.04 "HgN/A
11:30 AM55 °FPassing clouds.6 mph26%30.04 "HgN/A
11:00 AM54 °FSunny.3 mph28%30.07 "Hg10 mi
10:30 AM54 °FPassing clouds.3 mph33%30.07 "HgN/A
10:00 AM52 °FSunny.3 mph35%30.07 "Hg10 mi
9:30 AM50 °FPassing clouds.3 mph37%30.07 "HgN/A
9:00 AM48 °FSunny.1 mph43%30.07 "Hg10 mi
8:30 AM46 °FSunny.1 mph43%30.09 "Hg10 mi
8:00 AM43 °FSunny.1 mph49%30.09 "Hg10 mi
7:30 AM41 °FSunny.1 mph49%30.09 "Hg10 mi
7:00 AM37 °FSunny.3 mph56%30.09 "Hg10 mi
6:30 AM36 °FSunny.3 mph56%30.09 "Hg10 mi
6:00 AM36 °FClear.3 mph56%30.09 "Hg10 mi
5:30 AM36 °FClear.3 mph56%30.09 "Hg10 mi
5:00 AM36 °FClear.3 mph56%30.09 "Hg10 mi
4:30 AM36 °FClear.3 mph52%30.09 "Hg10 mi
4:00 AM37 °FClear.3 mph48%30.09 "Hg10 mi
3:30 AM41 °FClear.1 mph39%30.12 "Hg10 mi
3:00 AM41 °FClear.1 mph39%30.12 "Hg10 mi
2:30 AM43 °FClear.3 mph36%30.12 "Hg10 mi
2:00 AM43 °FClear.3 mph36%30.12 "Hg10 mi
1:30 AM43 °FClear.3 mph36%30.12 "Hg10 mi
1:00 AM45 °FClear.3 mph34%30.12 "Hg10 mi
12:30 AM45 °FClear.3 mph34%30.15 "Hg10 mi
12:00 AM45 °FClear.3 mph34%30.15 "Hg10 mi
11:30 PM
Wed, May 4
45 °FClear.3 mph34%30.15 "Hg10 mi
11:00 PM45 °FClear.6 mph34%30.15 "Hg10 mi
Weather by CustomWeather, © 2016

See weather overviewHow to use our weather pages